Weather History for 71108 - January, 2013

Change the Weather History Date:

Wednesday, January 2, 2013

  Actual Average Record
Temperature  
Mean Temperature 34 °F -  
Max Temperature 41 °F 42 °F - ()
Min Temperature 27 °F 30 °F - ()
Degree Days  
Heating Degree Days 31    
Moisture  
Dew Point 27 °F    
Average Humidity 80    
Maximum Humidity 93    
Minimum Humidity 57    
Precipitation  
Precipitation 0.00 in 0.26 in - ()
Sea Level Pressure  
Sea Level Pressure 30.31 in    
Wind  
Wind Speed 3 mph ()    
Max Wind Speed 7 mph    
Max Gust Speed -    
Visibility 15.3 miles    
Events      
T = Trace of Precipitation, MM = Missing Value Source: Averaged Metar Reports

Daily Weather History Graph

Daily Weather History Graph

Search for Another Location

Airport or City:

Trip Planner

Search our weather history database for the weather conditions in past years. The results will help you decide how hot, cold, wet, or windy it might be!

Date:

Astronomy

Jan. 02, 2013 Rise Set
Actual Time 8:03 AM PST 4:24 PM PST
Civil Twilight 7:26 AM PST 5:01 PM PST
Nautical Twilight 6:46 AM PST 5:41 PM PST
Astronomical Twilight 6:07 AM PST 6:20 PM PST
Moon 10:34 PM PST (1/2) 10:18 AM PST (1/2)
Length of Visible Light 9h 34m
Length of Day
8h 20m
Waning Gibbous, 74% of the Moon is Illuminated
Jan 2
Waning Gibbous
Jan 4
Last Quarter
Jan 11
New
Jan 18
First Quarter
Jan 26
Full

Hourly Weather History & Observations

Time (PST) Temp. Windchill Dew Point Humidity Pressure Visibility Wind Dir Wind Speed Gust Speed Precip Events Conditions
12:00 AM 30.2 °F 26.7 °F 26.6 °F 86% 30.39 in 15.0 mi NNE 3.5 mph - N/A   Scattered Clouds
1:00 AM 30.2 °F 24.3 °F 26.6 °F 86% 30.38 in 15.0 mi NE 5.8 mph - N/A   Mostly Cloudy
2:00 AM 30.2 °F 23.4 °F 26.6 °F 86% 30.38 in 15.0 mi NNE 6.9 mph - N/A   Partly Cloudy
3:00 AM 30.2 °F - 26.6 °F 86% 30.37 in 15.0 mi Calm Calm - N/A   Scattered Clouds
4:00 AM 28 °F - 25 °F 84% 30.36 in 15 mi NE 2.3 mph - -   Clear
4:00 AM 28.4 °F 23.3 °F 24.8 °F 86% 30.35 in 15.0 mi NE 4.6 mph - N/A   Mostly Cloudy
5:00 AM 30.2 °F - 24.8 °F 80% 30.35 in 15.0 mi NNE 2.3 mph - N/A   Mostly Cloudy
6:00 AM 30.2 °F 26.7 °F 26.6 °F 86% 30.33 in 15.0 mi NNE 3.5 mph - N/A   Overcast
7:00 AM 28.4 °F - 24.8 °F 86% 30.32 in 30.0 mi Calm Calm - N/A   Mostly Cloudy
8:00 AM 30.2 °F 23.4 °F 24.8 °F 80% 30.33 in 30.0 mi NNW 6.9 mph - N/A   Scattered Clouds
9:00 AM 28.4 °F 24.6 °F 26.6 °F 93% 30.34 in 30.0 mi ENE 3.5 mph - N/A   Mostly Cloudy
10:00 AM 32 °F - 27 °F 75% 30.34 in 28 mi NNE 4.6 mph - -   Scattered Clouds
10:00 AM 32.0 °F 26.4 °F 26.6 °F 80% 30.34 in 30.0 mi NNE 5.8 mph - N/A   Mostly Cloudy
11:00 AM 35.6 °F 30.7 °F 28.4 °F 75% 30.32 in 30.0 mi NE 5.8 mph - N/A   Mostly Cloudy
12:00 PM 39.2 °F 37.0 °F 28.4 °F 65% 30.30 in 30.0 mi NNE 3.5 mph - N/A   Mostly Cloudy
1:00 PM 41.0 °F - 30.2 °F 65% 30.29 in 30.0 mi Calm Calm - N/A   Mostly Cloudy
2:00 PM 41.0 °F 38.0 °F 30.2 °F 65% 30.28 in 30.0 mi SE 4.6 mph - N/A   Mostly Cloudy
3:00 PM 41.0 °F 36.4 °F 30.2 °F 65% 30.28 in 30.0 mi North 6.9 mph - N/A   Scattered Clouds
4:00 PM 39 °F - 29 °F 57% 30.29 in 28 mi NE 5.8 mph - -   Clear
4:00 PM 39.2 °F 35.9 °F 28.4 °F 65% 30.29 in 30.0 mi NE 4.6 mph - N/A   Scattered Clouds
4:54 PM 33.8 °F 29.6 °F 26.6 °F 75% 30.28 in 30.0 mi East 4.6 mph - N/A   Scattered Clouds
5:00 PM 33.8 °F 29.6 °F 26.6 °F 75% 30.28 in 20.0 mi East 4.6 mph - N/A   Scattered Clouds
6:00 PM 30.2 °F - 28.4 °F 93% 30.27 in 15.0 mi Calm Calm - N/A   Partly Cloudy
7:00 PM 32.0 °F - 28.4 °F 87% 30.26 in 15.0 mi Calm Calm - N/A   Partly Cloudy
8:00 PM 30.2 °F - 26.6 °F 86% 30.25 in 15.0 mi Calm Calm - N/A   Partly Cloudy
9:00 PM 28.4 °F 23.3 °F 26.6 °F 93% 30.24 in 15.0 mi North 4.6 mph - N/A   Partly Cloudy
10:00 PM 28 °F - 26 °F 87% 30.25 in 15 mi West 2.3 mph - -   Clear
10:00 PM 28.4 °F 24.6 °F 24.8 °F 86% 30.24 in 15.0 mi WNW 3.5 mph - N/A   Partly Cloudy
11:00 PM 28.4 °F - 26.6 °F 93% 30.24 in 15.0 mi Calm Calm - N/A   Partly Cloudy